Idabel, OK

3:52 AM CST on February 11, 2016 (GMT -0600)
Idabel

Weather History for K4O4 - March, 2013

Change the Weather History Date:

Sunday, March 3, 2013

  Actual Average (KDEQ) Record (KDEQ)
Temperature  
Mean Temperature 44 °F 50 °F  
Max Temperature 64 °F 63 °F 84 °F (1974)
Min Temperature 24 °F 37 °F 8 °F (1943)
Degree Days  
Heating Degree Days 21 15  
Month to date heating degree days 47  
Since 1 July heating degree days 2538  
Cooling Degree Days 0 0  
Month to date cooling degree days 0  
Year to date cooling degree days 2  
Moisture  
Dew Point 26 °F    
Average Humidity 49    
Maximum Humidity 86    
Minimum Humidity 26    
Precipitation  
Precipitation 0.00 in 0.07 in 3.45 in (1977)
Month to date precipitation 0.24  
Year to date precipitation 7.24  
Snow  
Snow 0.00 in - - ()
Month to date snowfall  
Since 1 July snowfall  
Snow Depth -    
Sea Level Pressure  
Sea Level Pressure 30.08 in    
Wind  
Wind Speed 5 mph (SSE)    
Max Wind Speed 16 mph    
Max Gust Speed 22 mph    
Visibility 10 miles    
Events      
T = Trace of Precipitation, MM = Missing Value Source: NWS Daily Summary

Daily Weather History Graph

Daily Weather History Graph

Search for Another Location

Airport or City:

Trip Planner

Search our weather history database for the weather conditions in past years. The results will help you decide how hot, cold, wet, or windy it might be!

Date:

Astronomy

Mar. 03, 2013 Rise Set
Actual Time 6:45 AM CST 6:17 PM CST
Civil Twilight 6:20 AM CST 6:42 PM CST
Nautical Twilight 5:51 AM CST 7:11 PM CST
Astronomical Twilight 5:22 AM CST 7:40 PM CST
Moon No Moon Rise 10:19 AM CST (3/3)
Length of Visible Light 12h 22m
Length of Day
11h 32m
Waning Gibbous, 63% of the Moon is Illuminated
Mar 3
Waning Gibbous
Mar 4
Last Quarter
Mar 11
New
Mar 19
First Quarter
Mar 27
Full

Hourly Weather History & Observations

Time (CST) Temp. Windchill Dew Point Humidity Pressure Visibility Wind Dir Wind Speed Gust Speed Precip Events Conditions
12:15 AM 28.4 °F - 21.2 °F 74% 30.24 in 10.0 mi Calm Calm - N/A   Clear
12:35 AM 32.0 °F - 19.4 °F 60% 30.24 in 10.0 mi Calm Calm - N/A   Clear
12:55 AM 32.0 °F - 21.2 °F 64% 30.23 in 10.0 mi Calm Calm - N/A   Clear
1:35 AM 30.2 °F - 21.2 °F 69% 30.23 in 10.0 mi Calm Calm - N/A   Clear
1:55 AM 28.4 °F - 21.2 °F 74% 30.23 in 10.0 mi Calm Calm - N/A   Clear
2:15 AM 28.4 °F - 19.4 °F 69% 30.24 in 10.0 mi Calm Calm - N/A   Clear
2:35 AM 28.4 °F - 19.4 °F 69% 30.23 in 10.0 mi Calm Calm - N/A   Clear
3:15 AM 26.6 °F - 21.2 °F 80% 30.22 in 10.0 mi Calm Calm - N/A   Clear
3:35 AM 28.4 °F - 21.2 °F 74% 30.21 in 10.0 mi Calm Calm - N/A   Clear
3:55 AM 26.6 °F - 21.2 °F 80% 30.21 in 10.0 mi Calm Calm - N/A   Clear
4:15 AM 26.6 °F - 21.2 °F 80% 30.20 in 10.0 mi Calm Calm - N/A   Clear
4:35 AM 26.6 °F - 21.2 °F 80% 30.21 in 10.0 mi Calm Calm - N/A   Clear
4:55 AM 28.4 °F - 21.2 °F 74% 30.20 in 10.0 mi Calm Calm - N/A   Clear
5:15 AM 26.6 °F - 21.2 °F 80% 30.21 in 10.0 mi Calm Calm - N/A   Clear
6:15 AM 28.4 °F - 21.2 °F 74% 30.21 in 10.0 mi Calm Calm - N/A   Clear
6:38 AM 26.6 °F - 19.4 °F 74% 30.21 in 10.0 mi Calm Calm - N/A   Clear
6:55 AM 26.6 °F - 21.2 °F 80% 30.23 in 10.0 mi Calm Calm - N/A   Clear
6:58 AM 24.8 °F - 19.4 °F 80% 30.23 in 10.0 mi Calm Calm - N/A   Clear
7:15 AM 26.6 °F 22.6 °F 23.0 °F 86% 30.24 in 10.0 mi NE 3.5 mph - N/A   Clear
7:35 AM 28.4 °F 22.2 °F 24.8 °F 86% 30.23 in 10.0 mi ENE 5.8 mph - N/A   Clear
7:55 AM 30.2 °F 26.7 °F 26.6 °F 86% 30.23 in 10.0 mi ENE 3.5 mph - N/A   Clear
8:39 AM 37.4 °F 34.9 °F 24.8 °F 60% 30.21 in 10.0 mi SE 3.5 mph - N/A   Clear
8:55 AM 37.4 °F 31.4 °F 24.8 °F 60% 30.21 in 10.0 mi South 8.1 mph - N/A   Clear
9:15 AM 41.0 °F 34.7 °F 23.0 °F 49% 30.22 in 10.0 mi South 10.4 mph - N/A   Clear
9:35 AM 42.8 °F 37.5 °F 23.0 °F 46% 30.21 in 10.0 mi South 9.2 mph - N/A   Clear
9:55 AM 44.6 °F 39.7 °F 23.0 °F 43% 30.21 in 10.0 mi South 9.2 mph - N/A   Clear
10:15 AM 46.4 °F 42.4 °F 23.0 °F 40% 30.20 in 10.0 mi South 8.1 mph - N/A   Clear
10:35 AM 48.2 °F - 23.0 °F 37% 30.19 in 10.0 mi South 6.9 mph - N/A   Clear
10:55 AM 50.0 °F - 23.0 °F 35% 30.17 in 10.0 mi SSE 9.2 mph - N/A   Clear
11:15 AM 51.8 °F - 21.2 °F 30% 30.17 in 10.0 mi South 10.4 mph - N/A   Clear
11:35 AM 51.8 °F - 21.2 °F 30% 30.15 in 10.0 mi SSE 8.1 mph 17.3 mph N/A   Clear
11:55 AM 53.6 °F - 23.0 °F 30% 30.14 in 10.0 mi SSE 12.7 mph 16.1 mph N/A   Clear
12:15 PM 55.4 °F - 23.0 °F 29% 30.12 in 10.0 mi SSE 11.5 mph - N/A   Clear
12:35 PM 55.4 °F - 23.0 °F 29% 30.10 in 10.0 mi SSE 10.4 mph 17.3 mph N/A   Clear
12:55 PM 57.2 °F - 24.8 °F 29% 30.09 in 10.0 mi SSE 11.5 mph 16.1 mph N/A   Clear
1:15 PM 59.0 °F - 26.6 °F 29% 30.06 in 10.0 mi South 13.8 mph 19.6 mph N/A   Clear
1:35 PM 60.8 °F - 26.6 °F 27% 30.04 in 10.0 mi South 16.1 mph 19.6 mph N/A   Clear
1:55 PM 60.8 °F - 26.6 °F 27% 30.03 in 10.0 mi SSE 13.8 mph 18.4 mph N/A   Clear
2:35 PM 62.6 °F - 28.4 °F 27% 30.01 in 10.0 mi SSE 13.8 mph 18.4 mph N/A   Clear
2:55 PM 62.6 °F - 26.6 °F 26% 30.00 in 10.0 mi South 11.5 mph 19.6 mph N/A   Clear
3:35 PM 62.6 °F - 28.4 °F 27% 29.98 in 10.0 mi SSW 11.5 mph 16.1 mph N/A   Clear
3:55 PM 64.4 °F - 28.4 °F 26% 29.97 in 10.0 mi South 13.8 mph 17.3 mph N/A   Clear
4:15 PM 64.4 °F - 28.4 °F 26% 29.96 in 10.0 mi SSE 12.7 mph 16.1 mph N/A   Clear
4:35 PM 64.4 °F - 28.4 °F 26% 29.95 in 10.0 mi SSE 11.5 mph 16.1 mph N/A   Clear
4:55 PM 64.4 °F - 28.4 °F 26% 29.95 in 10.0 mi SSE 11.5 mph 17.3 mph N/A   Clear
5:15 PM 62.6 °F - 28.4 °F 27% 29.94 in 10.0 mi SSE 11.5 mph - N/A   Clear
5:35 PM 62.6 °F - 28.4 °F 27% 29.94 in 10.0 mi SE 10.4 mph - N/A   Clear
5:55 PM 60.8 °F - 30.2 °F 31% 29.93 in 10.0 mi SE 12.7 mph - N/A   Clear
6:15 PM 59.0 °F - 30.2 °F 34% 29.92 in 10.0 mi SE 12.7 mph - N/A   Clear
6:35 PM 59.0 °F - 30.2 °F 34% 29.92 in 10.0 mi SE 9.2 mph - N/A   Clear
6:55 PM 55.4 °F - 30.2 °F 38% 29.92 in 10.0 mi SE 8.1 mph - N/A   Clear
7:15 PM 55.4 °F - 30.2 °F 38% 29.92 in 10.0 mi SE 8.1 mph - N/A   Clear
7:35 PM 55.4 °F - 30.2 °F 38% 29.92 in 10.0 mi SE 9.2 mph - N/A   Clear
8:15 PM 53.6 °F - 32.0 °F 44% 29.92 in 10.0 mi SE 10.4 mph - N/A   Clear
8:35 PM 53.6 °F - 32.0 °F 44% 29.92 in 10.0 mi SE 12.7 mph 16.1 mph N/A   Clear
8:55 PM 53.6 °F - 32.0 °F 44% 29.92 in 10.0 mi SE 10.4 mph - N/A   Clear
9:15 PM 53.6 °F - 32.0 °F 44% 29.92 in 10.0 mi SE 11.5 mph - N/A   Clear
9:35 PM 53.6 °F - 32.0 °F 44% 29.92 in 10.0 mi SE 10.4 mph - N/A   Clear
9:55 PM 51.8 °F - 32.0 °F 47% 29.92 in 10.0 mi ESE 10.4 mph - N/A   Clear
10:15 PM 51.8 °F - 32.0 °F 47% 29.91 in 10.0 mi SE 12.7 mph - N/A   Clear
10:35 PM 51.8 °F - 32.0 °F 47% 29.89 in 10.0 mi SE 10.4 mph - N/A   Clear
10:55 PM 51.8 °F - 32.0 °F 47% 29.88 in 10.0 mi SE 11.5 mph - N/A   Clear
11:15 PM 53.6 °F - 32.0 °F 44% 29.87 in 10.0 mi SSE 16.1 mph 21.9 mph N/A   Clear
11:35 PM 53.6 °F - 32.0 °F 44% 29.86 in 10.0 mi SSE 15.0 mph 21.9 mph N/A   Clear
11:55 PM 53.6 °F - 32.0 °F 44% 29.85 in 10.0 mi SSE 16.1 mph 20.7 mph N/A   Clear